Location: Atbuku
(36.4936°N, 30.4362°E)
Time: 03:57:43
(UTC+00:00)

Milstar 3 Cent rocket - Pass Details

Date: 11 December 2025
Orbit: 709 x 5142 km, 28.3° (Epoch: 13 January)

Event Time Altitude Azimuth Distance (km) Brightness Sun altitude
Rises 15:13:58 0° 259° (W) 3,919 7.7 -6.4°
Reaches altitude 10° 15:16:08 10° 254° (WSW) 3,237 7.0 -6.8°
Maximum altitude 15:24:12 57° 178° (S) 2,223 4.5 -8.3°
Drops below altitude 10° 15:41:46 10° 105° (ESE) 6,624 6.3 -11.6°
Sets 15:48:37 0° 103° (ESE) 8,330 6.8 -12.9°
